Location: Kergos
(48.3833°N, 4.7167°W)
Time: 00:00:28
(UTC+00:00)

Daily predictions for brighter satellites

Satellite Brightness Start Highest point End
(mag) Time Altitude Azimuth Time Altitude Azimuth Time Altitude Azimuth
Cosmos 2278 Rocket 3.1 04:43:00 43° NNE 04:43:45 46° NE 04:49:11 10° SE
Cosmos 44 Rocket 4.2 04:49:27 50° ENE 04:49:27 50° ENE 04:53:58 10° ESE
USA 215 3.7 04:44:49 10° ENE 04:50:54 47° N 04:50:54 47° N
Cosmos 2322 4.1 04:56:40 57° NNE 04:56:40 57° NNE 05:01:12 10° NNE
Cosmos 2237 Rocket 4.1 04:51:35 10° SSE 04:56:16 27° ESE 05:00:58 10° NE
Cosmos 2219 Rocket 2.2 04:59:59 73° ENE 04:59:59 73° ENE 05:05:07 10° NNE
Cosmos 2333 Rocket 2.3 05:02:50 70° NNE 05:02:50 70° NNE 05:07:50 10° NNE
Lacrosse 5 rocket 2.9 05:06:23 31° E 05:06:23 31° E 05:08:37 10° ESE
IRIDIUM 104 4.5 04:59:51 10° S 05:05:02 71° E 05:10:15 10° N
Cosmos 921 Rocket 4.1 05:06:41 41° ENE 05:06:41 41° ENE 05:09:51 10° NNE
GEOS 3 Rocket 4.0 05:01:08 10° ESE 05:06:27 64° NE 05:07:17 56° N
MOS 1 Rocket 4.4 05:05:04 10° SE 05:09:46 45° ENE 05:13:19 16° N
IRIDIUM 114 4.2 05:08:56 10° S 05:14:09 85° E 05:19:25 10° N
COSMO-SKYMED 1 2.9 05:14:07 10° SSE 05:17:53 63° ESE 05:17:53 63° ESE
Cosmos 990 Rocket 4.5 05:21:08 45° S 05:21:08 45° S 05:24:44 10° S
COSMOS 2428 2.5 05:21:27 65° SW 05:22:19 83° WNW 05:28:03 10° NNE
IRIDIUM 103 4.1 05:18:05 10° S 05:23:18 82° W 05:28:34 10° N
SL-16 R/B 4.1 05:28:38 16° NNW 05:28:38 16° NNW 05:30:36 10° N
ADEOS 3.4 05:21:50 10° NNE 05:27:05 85° WNW 05:29:54 28° SSW
Cosmos 1980 4.5 05:23:39 10° S 05:29:05 51° ESE 05:34:33 10° NE
Cosmos 2360 Rocket 3.5 05:31:43 26° NNW 05:31:43 26° NNW 05:35:00 10° NNE
Cosmos 2322 Rocket 4.0 05:33:30 17° NNW 05:33:30 17° NNW 05:35:43 10° N
Cosmos 1891 Rocket 4.4 05:26:54 10° S 05:33:05 90° SSE 05:39:13 10° N
Cosmos 1544 Rocket 4.0 05:30:03 10° S 05:34:17 58° E 05:38:33 10° NNE
FENGYUN 3A 4.1 05:30:42 10° N 05:34:52 44° NW 05:34:52 44° NW
Cosmos 1464 Rocket 3.9 05:30:50 10° S 05:36:58 88° E 05:43:10 10° N
ERS-2 2.6 05:33:55 10° SSE 05:36:48 54° SSE 05:36:48 54° SSE
Meteor PRIRODA 4.3 05:34:21 10° NNE 05:37:55 52° E 05:41:27 10° S
Meteor 2-10 4.0 05:32:52 10° SSW 05:38:30 75° WNW 05:43:58 10° N
Cosmos 858 Rocket 4.3 05:37:25 48° NW 05:38:53 76° WSW 05:44:05 10° SSE
IRIDIUM 106 4.3 05:36:31 10° SSW 05:41:39 58° W 05:46:49 10° N
Cosmos 1072 Rocket 4.4 05:36:04 10° SSW 05:42:17 79° W 05:48:39 10° N
SKYMED 3 4.5 05:38:07 10° S 05:42:10 64° SW 05:42:10 64° SW
Cosmos 1763 Rocket 3.3 05:42:47 39° SW 05:44:39 69° WNW 05:49:55 10° NNE
Okean 1-7 Rocket 3.5 05:46:14 51° NW 05:47:12 67° W 05:51:39 10° S
Cosmos 1626 Rocket 3.7 05:46:31 10° N 05:51:01 75° E 05:55:28 10° SSE
Cosmos 1908 4.0 05:47:31 10° S 05:51:13 52° E 05:54:57 10° NNE
Cosmos 841 Rocket 3.6 05:46:31 10° SSW 05:51:38 72° ESE 05:56:47 10° NNE
Cosmos 1898 Rocket 3.8 05:53:08 41° WSW 05:53:08 41° WSW 05:57:47 10° S
CZ-2C R/B 4.0 05:53:15 10° S 05:53:47 10° S 05:54:19 10° SSE
Cosmos 1953 2.2 05:49:52 10° S 05:53:51 87° E 05:57:51 10° N
ATLAS CENTAUR R/B 3.8 05:54:02 10° SSE 05:56:47 20° ESE 05:59:31 10° ENE
BREEZE-M DEB (TANK) 3.7 05:55:17 29° WNW 05:59:46 56° SW 06:03:25 10° SE
Meteor 1-16 Rocket 4.5 05:54:52 10° S 06:00:46 77° E 06:06:43 10° NNE
Cosmos 1455 Rocket 3.1 05:59:59 40° WSW 06:01:02 49° WNW 06:05:16 10° N
Cosmos 1092 Rocket 4.2 05:56:17 10° N 06:02:27 72° ENE 06:08:36 10° SSE
SKYMED 2 4.0 06:02:31 10° SSW 06:06:28 38° W 06:06:28 38° W
Cosmos 2298 Rocket 4.5 06:02:27 10° NNW 06:07:46 63° ENE 06:13:03 10° SE
Cosmos 1570 Rocket 4.0 06:04:27 10° SSW 06:09:41 84° ESE 06:14:57 10° NNE
deb Chang Zheng 4 3.6 06:08:26 10° N 06:12:35 53° WNW 06:16:42 10° SSW
Cosmos 1758 Rocket 4.4 06:09:19 10° N 06:13:44 54° ENE 06:18:07 10° SSE
Cosmos 1340 2.5 06:12:25 18° NNW 06:15:08 73° W 06:18:53 10° S
Cosmos 2034 Rocket 4.0 06:08:48 10° SSW 06:15:09 70° WNW 06:21:31 10° N
SJ-12 4.5 06:14:14 10° N 06:18:01 35° WNW 06:19:29 27° WSW
Nadezhda 4 Rocket 4.0 06:12:18 10° NNW 06:18:17 57° W 06:24:14 10° S
SAR-Lupe-4 3.9 06:16:23 10° S 06:19:47 42° W 06:20:46 33° WNW
PSLV R/B 4.2 06:16:57 10° S 06:20:54 46° W 06:23:49 17° NNW
Cosmos 1461 3.4 06:18:29 25° WSW 06:20:54 49° NW 06:25:34 10° NNE
Cosmos 2369 Rocket 3.8 06:16:35 10° NNW 06:21:35 31° NE 06:26:30 10° ESE
Okean O Rocket 3.5 06:19:39 10° NNE 06:23:38 33° E 06:27:34 10° SSE
Cosmos 372 Rocket 4.1 06:20:31 14° NNW 06:24:55 57° WSW 06:30:01 10° S
Meteor 1-11 4.3 06:19:22 10° N 06:25:00 78° ENE 06:30:35 10° SSE
FALCON 9 DEB 3.1 06:23:26 26° WSW 06:25:13 81° SSE 06:28:39 10° ENE
Cosmos 1937 Rocket 4.3 06:23:57 24° WNW 06:25:54 31° W 06:30:25 10° SSW
ALOS 4.2 06:24:11 10° NNW 06:25:11 13° NNW 06:25:11 13° NNW
Cosmos 1125 Rocket 4.0 06:22:13 10° NNW 06:27:30 63° ENE 06:32:47 10° SE
Cosmos 1703 3.3 06:24:09 13° NNW 06:27:32 51° W 06:31:19 10° S
Cosmos 2278 Rocket 2.8 06:24:53 22° WNW 06:27:41 34° WSW 06:32:43 10° SSW
SL-16 R/B 3.2 06:22:42 10° S 06:28:09 51° ESE 06:33:36 10° NE
DMSP B5D1-3 4.5 06:24:42 10° S 06:29:46 62° WSW 06:34:50 10° NNW
Cosmos 44 Rocket 4.3 06:28:12 23° WNW 06:30:13 30° WSW 06:34:43 10° S
Cosmos 1634 Rocket 4.2 06:24:12 10° S 06:30:20 76° E 06:36:32 10° NNE
Cosmos 1943 Rocket 2.9 06:25:04 10° NNW 06:30:37 53° NE 06:36:10 10° SE
Cosmos 1814 Rocket 3.8 06:25:51 10° SSW 06:30:58 74° WNW 06:36:08 10° NNE
Cosmos 2208 Rocket 4.0 06:25:31 10° SSW 06:30:58 81° WNW 06:36:26 10° NNE
Envisat 2.9 06:26:26 10° NNE 06:31:32 79° WNW 06:36:36 10° SSW
Cosmos 1602 Rocket 3.6 06:27:18 10° NNW 06:31:41 58° W 06:36:04 10° S
USA 215 3.9 06:27:14 10° ENE 06:33:19 43° N 06:38:15 16° WNW
CZ-2C R/B 2.7 06:30:07 10° SSE 06:35:21 85° ENE 06:40:43 10° NNW
H-2A R/B 3.1 06:32:45 10° N 06:36:13 39° WNW 06:39:42 10° SW
Cosmos 1346 Rocket 2.9 06:32:19 10° N 06:36:19 79° ENE 06:40:18 10° SSE
CZ-4B R/B 3.5 06:35:46 10° N 06:38:53 28° WNW 06:42:01 10° SW
Cosmos 2237 Rocket 2.3 06:34:25 10° SW 06:39:59 56° WNW 06:45:36 10° NNE
NOAA 6 4.0 06:35:47 10° NNE 06:41:00 89° WNW 06:46:12 10° SSW
PAYLOAD B 4.5 06:35:30 10° NNE 06:41:06 75° ESE 06:46:42 10° S
Cosmos 1689 Rocket 3.5 06:39:47 10° SSW 06:41:39 20° WSW 06:41:39 20° WSW
SWAS 4.4 06:38:03 10° SSW 06:42:19 87° WNW 06:46:38 10° NNE
ATLAS 5 CENTAUR R/B 3.4 06:42:19 13° WSW 06:43:10 14° SW 06:45:35 10° S
Lacrosse 5 rocket 2.0 06:42:02 20° W 06:43:55 32° SW 06:47:14 10° SSE
Cosmos 2219 Rocket 3.3 06:41:45 18° WNW 06:44:07 23° NW 06:48:31 10° N
Cosmos 921 Rocket 4.2 06:43:33 19° WNW 06:44:20 20° WNW 06:47:28 10° N
Cosmos 2333 Rocket 3.5 06:44:53 17° WNW 06:47:14 21° NW 06:51:28 10° N
Spot 2 3.8 06:43:25 10° NNE 06:47:30 83° WNW 06:51:33 10° SSW
YAOGAN 6 2.9 06:44:13 10° N 06:47:45 43° WNW 06:51:15 10° SW
MOS 1 Rocket 4.4 06:44:06 10° SSW 06:48:10 25° W 06:52:05 10° NW
Cosmos 1825 Rocket 3.6 06:44:25 10° N 06:48:55 88° E 06:53:23 10° S
SMAP 3.2 06:44:23 10° NNE 06:49:04 81° ESE 06:53:43 10° SSW
Meteor 2-19 Rocket 4.4 06:44:07 10° N 06:50:17 83° W 06:56:22 10° S
Cosmos 1939 Rocket 4.3 06:48:51 10° NNE 06:52:37 41° E 06:56:18 10° S
COSMO-SKYMED 1 4.3 06:52:56 10° WSW 06:55:06 13° W 06:55:06 13° W
Cosmos 2026 Rocket 4.1 06:48:53 10° NNW 06:55:09 63° W 07:01:25 10° S
Cosmos 540 Rocket 4.1 06:51:38 10° WSW 06:56:17 34° WNW 07:00:59 10° N
NOSS 0 Rocket 4.4 06:51:21 10° WSW 06:57:08 40° NW 07:02:55 10° NNE
Lacrosse 4 Rocket 1.4 06:53:12 10° SW 06:57:26 82° WNW 07:01:50 10° NNE
CORIOLIS 4.4 06:52:11 10° NNE 06:57:33 75° ESE 07:02:54 10° S
Cosmos 1328 4.5 06:54:34 10° NNW 06:58:07 32° W 07:01:38 10° SSW
NOSS 3-2 (A) 3.6 06:54:32 10° SSW 07:00:12 78° SE 07:06:47 10° NE
Cosmos 2297 3.8 06:55:07 10° NNW 07:00:50 66° WSW 07:06:31 10° SSE
Cosmos 1400 Rocket 3.5 06:57:24 10° SW 07:01:09 34° WNW 07:04:56 10° N
PSLV R/B 4.4 07:01:30 10° N 07:05:09 36° WNW 07:08:50 10° SW
Cosmos 1408 4.1 07:03:00 10° N 07:06:22 37° ENE 07:09:44 10° SE
Cosmos 1825 4.4 07:03:21 10° NNE 07:06:34 25° ENE 07:09:45 10° SE
Cosmos 1300 2.6 07:02:48 10° SSW 07:06:34 62° WNW 07:10:22 10° N
SL-4 R/B 2.6 07:03:06 10° SW 07:06:53 56° SSE 07:10:59 10° ENE
COSMOS 2428 4.0 07:03:31 10° W 07:07:31 20° NW 07:11:39 10° N
CZ-4 R/B 4.1 07:04:46 10° NE 07:07:53 23° E 07:10:58 10° SSE
NOAA 11 4.3 07:03:33 10° NNE 07:09:05 88° ESE 07:14:32 10° SSW
NOSS 3-2 (C) 4.1 07:04:57 10° SSW 07:10:28 58° ESE 07:16:48 10° NE
Cosmos 1953 Rocket 3.5 07:06:35 10° N 07:10:56 82° W 07:15:15 10° S
BREEZE-M DEB (TANK) 3.7 07:09:06 10° WSW 07:12:45 77° SSE 07:26:24 10° ENE
Cosmos 1980 4.4 07:08:20 10° WSW 07:13:24 33° NW 07:18:30 10° NNE
Cosmos 2084 Rocket 3.8 07:09:54 10° NW 07:14:10 52° SW 07:18:32 10° SSE
BREEZE-M DEB (TANK) 3.7 07:17:00 10° SW 07:19:48 32° SSE 07:21:44 10° E
Cosmos 1441 Rocket 4.3 07:16:59 10° N 07:20:53 49° ENE 07:24:41 10° SSE
CZ-2D R/B 3.8 07:21:10 10° NNE 07:24:57 63° ESE 07:28:43 10° S
Cosmos 1606 Rocket 3.6 07:21:01 10° SSW 07:25:15 54° WNW 07:29:30 10° N
